Location: Krasnoyarskiy
(51.1133°N, 71.6497°E)
Time: 12:44:37
(UTC+00:00)

OBJECT C - Visible Passes

Search period start: 25 September 2023 00:00
Search period end: 05 October 2023 00:00
Orbit: 511 x 521 km, 97.4° (Epoch: 25 September)

Date Brightness Start Highest point End Pass type
(mag) Time Alt. Az. Time Alt. Az. Time Alt. Az.
25 Sep ? 14:52:37 12° NE 14:52:37 12° NE 14:53:33 10° NNE visible
25 Sep ? 16:27:38 23° NNW 16:27:38 23° NNW 16:29:08 10° NNW visible
26 Sep ? 16:12:59 23° N 16:12:59 23° N 16:14:27 10° N visible
27 Sep ? 15:58:16 22° N 15:58:16 22° N 15:59:43 10° N visible
28 Sep ? 15:43:32 19° NNE 15:43:32 19° NNE 15:44:53 10° N visible
28 Sep ? 17:18:34 10° NW 17:18:34 10° NW 17:18:37 10° NW visible
29 Sep ? 15:28:48 17° NNE 15:28:48 17° NNE 15:29:57 10° N visible
29 Sep ? 17:03:49 12° NW 17:03:49 12° NW 17:04:10 10° NNW visible
30 Sep ? 15:14:02 14° NNE 15:14:02 14° NNE 15:14:53 10° NNE visible
30 Sep ? 16:49:03 14° NNW 16:49:03 14° NNW 16:49:36 10° NNW visible
01 Oct ? 14:59:14 11° NNE 14:59:14 11° NNE 14:59:39 10° NNE visible
01 Oct ? 16:34:15 15° NNW 16:34:15 15° NNW 16:34:55 10° NNW visible
02 Oct ? 16:19:26 15° NNW 16:19:26 15° NNW 16:20:08 10° NNW visible
03 Oct ? 16:04:36 15° N 16:04:36 15° N 16:05:17 10° N visible
04 Oct ? 15:49:45 14° N 15:49:45 14° N 15:50:20 10° N visible
